Location: Chihuahua
(28.6330°N, 106.0830°W)
Time: 22:07:34
(UTC-07:00)

Daily predictions for brighter satellites

Satellite Brightness Start Highest point End
(mag) Time Altitude Azimuth Time Altitude Azimuth Time Altitude Azimuth
Cosmos 2208 Rocket 4.1 18:43:25 10° S 18:48:35 61° ESE 18:53:52 10° NNE
Spot 2 Rocket 3.8 18:45:43 10° SSE 18:50:37 50° ENE 18:55:31 10° N
Cosmos 2369 3.8 18:45:39 10° S 18:51:09 56° ESE 18:56:41 10° NNE
CZ-4B DEB 4.5 18:49:42 10° ESE 18:51:58 18° ENE 18:54:14 10° NNE
Cosmos 1980 Rocket 4.0 18:53:00 10° E 18:53:05 10° E 18:53:10 10° E
Cosmos 1315 Rocket 4.1 18:52:42 10° SSW 18:56:33 47° W 19:00:27 10° N
Helios 1B rocket 2.8 18:55:03 10° N 18:59:09 71° WNW 19:03:13 10° SSW
NOSS 7 (H) 4.5 18:58:29 10° SSW 19:02:03 83° WNW 19:05:21 10° NNE
OTV 4 2.7 19:00:35 10° NNW 19:02:38 17° NNE 19:04:42 10° NE
Cosmos 1570 Rocket 4.1 18:57:42 10° SSW 19:03:00 86° WNW 19:08:18 10° NNE
SJ-6B 3.6 19:00:53 10° S 19:04:31 52° W 19:08:11 10° NNW
Okean 2 4.0 19:00:52 10° NNE 19:04:44 37° E 19:08:33 10° SSE
Meteor 2-16 Rocket 4.4 19:03:30 10° S 19:09:32 72° E 19:15:35 10° N
CZ-2D R/B 4.4 19:06:55 10° SE 19:10:04 24° ENE 19:13:14 10° NNE
Meteor 1-23 Rocket 4.2 19:06:09 10° N 19:11:49 71° E 19:17:32 10° SSE
Fermi 4.3 19:09:23 10° WSW 19:13:14 41° S 19:16:18 15° ESE
FENGYUN 3A 4.2 19:10:09 10° SE 19:15:04 39° ENE 19:20:00 10° N
Hubble Space Telescope 1.2 19:12:37 10° W 19:16:40 52° SSW 19:19:50 16° ESE
Cosmos 1656 3.8 19:12:06 10° S 19:17:32 51° ESE 19:22:55 10° NNE
Helios 1A 3.1 19:13:31 10° S 19:17:39 81° WSW 19:21:51 10° NNW
FengYun 1-2 T 4.3 19:13:09 10° SSE 19:18:43 66° ENE 19:24:17 10° N
Cosmos 1500 4.5 19:20:58 17° ESE 19:22:09 20° E 19:24:56 10° NE
Cosmos 1821 Rocket 4.4 19:19:04 10° SSW 19:25:08 66° W 19:31:10 10° N
Cosmos 1605 Rocket 4.0 19:21:52 10° S 19:28:11 71° E 19:34:27 10° N
Cosmos 2227 Rocket 2.6 19:23:07 10° N 19:28:28 43° ENE 19:32:24 17° SE
ERS-1 Rocket 4.5 19:28:09 16° E 19:29:23 18° ENE 19:32:38 10° NNE
Cosmos 1461 3.4 19:31:19 10° N 19:35:02 37° ENE 19:36:30 27° ESE
Cosmos 1346 Rocket 2.7 19:31:58 10° N 19:35:56 76° E 19:39:56 10° S
Cosmos 2082 3.8 19:38:06 10° N 19:43:36 55° ENE 19:46:55 24° SE
Cosmos 2297 Rocket 2.7 19:38:25 10° N 19:43:44 40° ENE 19:46:11 27° ESE
GOES 2 Rocket 4.3 19:41:23 10° W 19:45:00 28° SSW 19:46:53 20° SSE
Cosmos 1455 Rocket 4.3 19:42:14 10° SSW 19:46:20 42° W 19:50:27 10° N
Cosmos 1626 Rocket 3.7 19:44:31 10° N 19:48:46 48° E 19:50:16 33° SE
Cosmos 468 Rocket 3.8 19:50:53 10° S 19:55:59 79° ESE 20:01:07 10° NNE
Cosmos 1602 Rocket 3.5 19:53:43 10° N 19:58:07 65° E 19:59:40 38° SSE
Cosmos 2123 Rocket 4.3 19:59:10 10° NNW 20:05:15 65° W 20:11:21 10° S
Cosmos 1814 Rocket 3.9 20:01:09 10° SSW 20:06:29 83° ESE 20:11:50 10° NNE
Cosmos 220 Rocket 3.8 20:04:21 10° N 20:08:32 63° ENE 20:08:40 63° E
Cosmos 1459 Rocket 3.9 20:05:23 24° SSE 20:08:58 57° E 20:14:54 10° NNE
Cosmos 1697 Rocket 3.0 20:07:40 10° SSW 20:13:16 66° WNW 20:18:54 10° NNE
OAO 2 Rocket 4.3 20:10:47 10° WNW 20:15:30 40° N 20:17:25 29° NE
Milstar 3 Cent rocket 4.4 19:51:25 10° W 20:15:49 89° S 20:22:31 33° E
Resurs 01 Rocket 4.5 20:15:14 10° SW 20:17:39 15° W 20:20:06 10° WNW
Cosmos 1066 Rocket 4.2 20:13:37 10° N 20:19:17 62° E 20:20:13 54° ESE
Myojo/LAPS 4.3 20:17:26 10° W 20:18:42 30° W 20:18:42 30° W
ALOS 3.9 20:19:25 10° SSW 20:23:35 32° W 20:27:45 10° NW
H-2A R/B 4.5 20:21:25 18° SSW 20:23:36 31° W 20:27:06 10° NW
Delta 2 Rocket 3.7 20:18:17 10° WNW 20:23:55 89° SSW 20:24:27 73° ESE
USA 186 3.7 20:24:36 25° WSW 20:24:58 25° W 20:27:34 10° NW
Cosmos 1980 Rocket 2.3 20:30:43 10° SSW 20:36:20 72° WNW 20:42:01 10° NNE
Lacrosse 5 rocket 2.8 20:35:26 10° NW 20:37:27 31° NW 20:37:27 31° NW
OTV 4 3.6 20:36:22 10° WNW 20:37:04 16° NW 20:37:04 16° NW
Envisat 3.2 20:40:39 62° NNE 20:40:39 62° NNE 20:44:57 10° N
Cosmos 1802 Rocket 4.0 20:40:41 40° S 20:43:14 84° W 20:49:41 10° N
Cosmos 2298 Rocket 4.1 20:39:26 10° NNW 20:44:41 75° W 20:44:41 75° W
Cosmos 1937 Rocket 4.0 20:45:25 10° NNW 20:49:28 53° N 20:49:28 53° N
Cosmos 2016 Rocket 3.9 20:55:43 77° WSW 20:56:00 79° W 21:02:11 10° N
Hubble Space Telescope 3.6 20:54:46 10° WSW 20:55:13 12° WSW 20:55:13 12° WSW
ERS-1 Rocket 4.2 21:08:10 38° W 21:08:10 38° W 21:12:28 10° NNW
Cosmos 2098 Rocket 4.2 21:10:28 74° NNW 21:10:28 74° NNW 21:16:07 10° N
Cosmos 2227 Rocket 4.4 21:08:20 10° WNW 21:12:05 18° W 21:14:16 15° SW
Lacrosse 5 3.6 21:12:48 10° NNW 21:15:16 29° NNW 21:15:16 29° NNW
Cosmos 2297 Rocket 4.2 21:23:28 10° NW 21:27:22 19° W 21:28:02 19° WSW
